ALK127 VCBI-VOMM

Flight info

Callsign ALK127
Flight time 1h 7m
Altitude 38000
Route ATETA1D ATETA T4 TTR/N0435F390 R457 TEGUT TEGUT2E
Aircraft A20N/M-SDE2E3FGHIRWXY/LB1

Departure

Time 2026-05-09 04:26
Airport Bandaranaike International Colombo Airport (VCBI)

Arrival

Time 2026-05-09 05:34
Airport Chennai International Airport (VOMM)
Time Latitude Longitude Altitude Speed Heading
2026-05-09 04:12 7.17725 79.88417 30 ft 0 kts 217°
2026-05-09 04:15 7.17740 79.88428 30 ft 3 kts 217°
2026-05-09 04:16 7.17754 79.88442 30 ft 3 kts 245°
2026-05-09 04:16 7.17759 79.88460 30 ft 3 kts 250°
2026-05-09 04:16 7.17766 79.88478 30 ft 3 kts 261°
2026-05-09 04:16 7.17765 79.88496 30 ft 3 kts 276°
2026-05-09 04:17 7.17763 79.88514 30 ft 3 kts 276°
2026-05-09 04:17 7.17762 79.88526 30 ft 0 kts 276°
2026-05-09 04:19 7.17762 79.88525 30 ft 0 kts 277°
2026-05-09 04:20 7.17768 79.88520 30 ft 4 kts 316°
2026-05-09 04:20 7.17794 79.88502 30 ft 5 kts 328°
2026-05-09 04:20 7.17822 79.88481 30 ft 5 kts 316°
2026-05-09 04:20 7.17845 79.88454 30 ft 5 kts 309°
2026-05-09 04:21 7.17874 79.88433 30 ft 5 kts 344°
2026-05-09 04:21 7.17905 79.88441 31 ft 5 kts 32°
2026-05-09 04:21 7.18033 79.88539 30 ft 18 kts 37°
2026-05-09 04:22 7.18127 79.88611 30 ft 17 kts 37°
2026-05-09 04:22 7.18222 79.88683 30 ft 17 kts 37°
2026-05-09 04:22 7.18319 79.88757 30 ft 18 kts 37°
2026-05-09 04:22 7.18418 79.88833 31 ft 18 kts 38°
2026-05-09 04:23 7.18520 79.88911 31 ft 19 kts 37°
2026-05-09 04:23 7.18626 79.88990 31 ft 19 kts 36°
2026-05-09 04:23 7.18733 79.89073 31 ft 20 kts 37°
2026-05-09 04:23 7.18844 79.89157 31 ft 20 kts 37°
2026-05-09 04:24 7.18958 79.89245 30 ft 21 kts 37°
2026-05-09 04:24 7.19075 79.89334 30 ft 20 kts 37°
2026-05-09 04:24 7.19177 79.89406 30 ft 15 kts 21°
2026-05-09 04:24 7.19239 79.89371 30 ft 8 kts 308°
2026-05-09 04:25 7.19271 79.89326 30 ft 8 kts 306°
2026-05-09 04:25 7.19284 79.89275 30 ft 8 kts 251°
2026-05-09 04:25 7.19256 79.89246 30 ft 0 kts 216°
2026-05-09 04:25 7.19237 79.89232 31 ft 19 kts 217°
2026-05-09 04:26 7.18924 79.88993 33 ft 92 kts 217°
2026-05-09 04:26 7.18224 79.88457 32 ft 157 kts 217°
2026-05-09 04:26 7.17299 79.87748 437 ft 175 kts 218°
2026-05-09 04:26 7.16340 79.86970 1099 ft 183 kts 226°
2026-05-09 04:27 7.15884 79.85781 1692 ft 189 kts 274°
2026-05-09 04:27 7.16203 79.84453 2215 ft 204 kts 288°
2026-05-09 04:27 7.16672 79.83036 2550 ft 226 kts 287°
2026-05-09 04:27 7.17125 79.81451 2989 ft 245 kts 284°
2026-05-09 04:28 7.17610 79.79797 3698 ft 249 kts 295°
2026-05-09 04:28 7.18808 79.78546 4571 ft 254 kts 334°
2026-05-09 04:28 7.20537 79.78268 5666 ft 257 kts
2026-05-09 04:28 7.22122 79.79034 6671 ft 261 kts 43°
2026-05-09 04:29 7.23296 79.80443 7647 ft 264 kts 52°
2026-05-09 04:29 7.24478 79.81887 8596 ft 269 kts 48°
2026-05-09 04:29 7.25789 79.83250 9544 ft 273 kts 43°
2026-05-09 04:29 7.27201 79.84541 10470 ft 276 kts 40°
2026-05-09 04:30 7.28671 79.85785 11403 ft 281 kts 39°
2026-05-09 04:30 7.30205 79.87026 12332 ft 284 kts 38°
2026-05-09 04:30 7.31775 79.88267 13247 ft 289 kts 37°
2026-05-09 04:30 7.33377 79.89516 14132 ft 293 kts 37°
2026-05-09 04:31 7.35001 79.90781 14993 ft 297 kts 37°
2026-05-09 04:31 7.36843 79.91715 15777 ft 300 kts 11°
2026-05-09 04:31 7.38934 79.91832 16559 ft 303 kts 358°
2026-05-09 04:31 7.41032 79.91754 17332 ft 307 kts 358°
2026-05-09 04:32 7.43186 79.91696 18105 ft 311 kts 359°
2026-05-09 04:32 7.45365 79.91682 18868 ft 315 kts 360°
2026-05-09 04:32 7.47573 79.91700 19622 ft 318 kts
2026-05-09 04:32 7.49806 79.91737 20362 ft 322 kts
2026-05-09 04:33 7.52041 79.91784 21066 ft 326 kts
2026-05-09 04:33 7.54333 79.91839 21749 ft 330 kts
2026-05-09 04:33 7.56643 79.91897 22407 ft 333 kts
2026-05-09 04:33 7.58973 79.91957 23043 ft 337 kts
2026-05-09 04:34 7.61331 79.92019 23637 ft 340 kts
2026-05-09 04:34 7.63712 79.92082 24215 ft 343 kts
2026-05-09 04:34 7.66089 79.92146 24774 ft 347 kts
2026-05-09 04:34 7.68521 79.92212 25310 ft 350 kts
2026-05-09 04:35 7.70964 79.92278 25830 ft 353 kts
2026-05-09 04:35 7.73437 79.92345 26332 ft 356 kts
2026-05-09 04:35 7.75893 79.92412 26803 ft 359 kts
2026-05-09 04:35 7.78404 79.92480 27270 ft 361 kts
2026-05-09 04:36 7.80924 79.92548 27719 ft 364 kts
2026-05-09 04:36 7.83468 79.92617 28154 ft 367 kts
2026-05-09 04:36 7.86029 79.92700 28572 ft 369 kts
2026-05-09 04:36 7.88582 79.92390 28962 ft 371 kts 348°
2026-05-09 04:37 7.91131 79.91876 29351 ft 374 kts 348°
2026-05-09 04:37 7.93697 79.91342 29732 ft 376 kts 348°
2026-05-09 04:37 7.96270 79.90816 30097 ft 379 kts 348°
2026-05-09 04:37 7.98836 79.90302 30459 ft 381 kts 348°
2026-05-09 04:38 8.01457 79.89785 30816 ft 383 kts 348°
2026-05-09 04:38 8.04087 79.89272 31148 ft 385 kts 349°
2026-05-09 04:38 8.06738 79.88756 31476 ft 387 kts 349°
2026-05-09 04:38 8.09360 79.88248 31772 ft 390 kts 349°
2026-05-09 04:39 8.12062 79.87726 31923 ft 397 kts 349°
2026-05-09 04:39 8.14802 79.87196 32056 ft 404 kts 349°
2026-05-09 04:39 8.17562 79.86664 32180 ft 411 kts 349°
2026-05-09 04:39 8.20404 79.86121 32306 ft 417 kts 349°
2026-05-09 04:40 8.23292 79.85571 32428 ft 424 kts 349°
2026-05-09 04:40 8.26219 79.85014 32553 ft 430 kts 349°
2026-05-09 04:40 8.29185 79.84450 32675 ft 436 kts 349°
2026-05-09 04:40 8.32151 79.83886 32880 ft 440 kts 349°
2026-05-09 04:41 8.35164 79.83313 33196 ft 440 kts 349°
2026-05-09 04:41 8.38177 79.82739 33547 ft 440 kts 349°
2026-05-09 04:41 8.41184 79.82167 33900 ft 439 kts 349°
2026-05-09 04:41 8.44189 79.81595 34240 ft 438 kts 349°
2026-05-09 04:42 8.47194 79.81022 34556 ft 438 kts 349°
2026-05-09 04:42 8.50147 79.80460 34867 ft 437 kts 349°
2026-05-09 04:42 8.53133 79.79891 35172 ft 437 kts 349°
2026-05-09 04:42 8.56131 79.79320 35466 ft 436 kts 349°
2026-05-09 04:43 8.59116 79.78751 35753 ft 435 kts 349°
2026-05-09 04:43 8.62089 79.78184 36027 ft 435 kts 349°
2026-05-09 04:43 8.65036 79.77622 36286 ft 435 kts 349°
2026-05-09 04:43 8.68013 79.77055 36533 ft 435 kts 349°
2026-05-09 04:44 8.70987 79.76488 36770 ft 435 kts 349°
2026-05-09 04:44 8.72962 79.76111 36909 ft 435 kts 349°
2026-05-09 04:44 8.76945 79.75351 37214 ft 435 kts 349°
2026-05-09 04:44 8.79917 79.74784 37430 ft 435 kts 349°
2026-05-09 04:45 8.82862 79.74222 37637 ft 435 kts 349°
2026-05-09 04:45 8.85840 79.73654 37841 ft 435 kts 349°
2026-05-09 04:45 8.88820 79.73085 37983 ft 436 kts 349°
2026-05-09 04:46 8.93777 79.72139 38000 ft 435 kts 349°
2026-05-09 04:46 8.99728 79.71002 38001 ft 433 kts 349°
2026-05-09 04:47 9.05626 79.69875 38000 ft 433 kts 349°
2026-05-09 04:47 9.11583 79.68737 38000 ft 434 kts 349°
2026-05-09 04:48 9.17484 79.67609 38000 ft 434 kts 349°
2026-05-09 04:48 9.23429 79.66472 38000 ft 434 kts 349°
2026-05-09 04:49 9.29339 79.65342 38000 ft 434 kts 349°
2026-05-09 04:49 9.35290 79.64253 38000 ft 434 kts 350°
2026-05-09 04:50 9.41203 79.63219 38000 ft 434 kts 350°
2026-05-09 04:50 9.47162 79.62175 38000 ft 434 kts 350°
2026-05-09 04:51 9.53115 79.61132 38000 ft 434 kts 350°
2026-05-09 04:51 9.59033 79.60093 38000 ft 434 kts 350°
2026-05-09 04:52 9.64993 79.59047 38000 ft 434 kts 350°
2026-05-09 04:52 9.70955 79.58000 38000 ft 434 kts 350°
2026-05-09 04:53 9.76865 79.56962 38000 ft 434 kts 350°
2026-05-09 04:53 9.82818 79.55915 38000 ft 434 kts 350°
2026-05-09 04:54 9.88776 79.54868 38000 ft 434 kts 350°
2026-05-09 04:54 9.94692 79.53827 38000 ft 434 kts 350°
2026-05-09 04:55 10.00665 79.52777 38000 ft 434 kts 350°
2026-05-09 04:55 10.06575 79.51736 38000 ft 434 kts 350°
2026-05-09 04:56 10.12537 79.50687 38000 ft 434 kts 350°
2026-05-09 04:56 10.18493 79.49638 38000 ft 434 kts 350°
2026-05-09 04:57 10.24409 79.48595 38000 ft 434 kts 350°
2026-05-09 04:57 10.30364 79.47545 38000 ft 434 kts 350°
2026-05-09 04:58 10.36289 79.46501 38000 ft 434 kts 350°
2026-05-09 04:58 10.42247 79.45450 38000 ft 434 kts 350°
2026-05-09 04:59 10.48180 79.44402 38000 ft 434 kts 350°
2026-05-09 04:59 10.54134 79.43352 38000 ft 434 kts 350°
2026-05-09 05:00 10.60067 79.42304 38000 ft 434 kts 350°
2026-05-09 05:00 10.66034 79.41249 38000 ft 434 kts 350°
2026-05-09 05:01 10.71946 79.40204 38001 ft 434 kts 350°
2026-05-09 05:01 10.77906 79.39150 38001 ft 434 kts 350°
2026-05-09 05:02 10.83840 79.38101 38000 ft 434 kts 350°
2026-05-09 05:02 10.89784 79.37049 38000 ft 434 kts 350°
2026-05-09 05:03 10.95738 79.35995 38000 ft 434 kts 350°
2026-05-09 05:03 11.01702 79.34938 38000 ft 434 kts 350°
2026-05-09 05:04 11.07614 79.33891 38000 ft 434 kts 350°
2026-05-09 05:04 11.13570 79.32835 38000 ft 434 kts 350°
2026-05-09 05:05 11.19523 79.31780 38000 ft 434 kts 350°
2026-05-09 05:05 11.25446 79.30729 38000 ft 434 kts 350°
2026-05-09 05:06 11.31423 79.29668 38000 ft 434 kts 350°
2026-05-09 05:06 11.37343 79.28617 38000 ft 434 kts 350°
2026-05-09 05:07 11.43327 79.27554 38000 ft 434 kts 350°
2026-05-09 05:07 11.49252 79.26501 38000 ft 434 kts 350°
2026-05-09 05:08 11.55210 79.25442 38000 ft 434 kts 350°
2026-05-09 05:08 11.58210 79.25004 37883 ft 432 kts 356°
2026-05-09 05:08 11.61171 79.25071 37386 ft 431 kts
2026-05-09 05:08 11.64163 79.25362 36803 ft 430 kts
2026-05-09 05:09 11.67145 79.25690 36226 ft 430 kts
2026-05-09 05:09 11.70126 79.26018 35632 ft 430 kts
2026-05-09 05:09 11.73112 79.26342 35015 ft 430 kts
2026-05-09 05:09 11.76060 79.26658 34381 ft 431 kts
2026-05-09 05:10 11.79073 79.26978 33715 ft 432 kts
2026-05-09 05:10 11.82071 79.27295 33095 ft 432 kts
2026-05-09 05:10 11.85053 79.27610 32550 ft 430 kts
2026-05-09 05:10 11.88020 79.27923 32037 ft 427 kts
2026-05-09 05:11 11.90939 79.28231 31536 ft 423 kts
2026-05-09 05:11 11.93862 79.28539 31035 ft 420 kts
2026-05-09 05:11 11.96754 79.28844 30538 ft 417 kts
2026-05-09 05:11 11.99597 79.29144 30042 ft 413 kts
2026-05-09 05:12 12.02459 79.29445 29537 ft 410 kts
2026-05-09 05:12 12.05303 79.29745 29043 ft 407 kts
2026-05-09 05:12 12.08074 79.30038 28557 ft 404 kts
2026-05-09 05:12 12.10858 79.30332 28065 ft 401 kts
2026-05-09 05:13 12.13640 79.30625 27569 ft 398 kts
2026-05-09 05:13 12.16394 79.30916 27083 ft 395 kts
2026-05-09 05:13 12.19088 79.31200 26604 ft 392 kts
2026-05-09 05:13 12.21801 79.31487 26129 ft 389 kts
2026-05-09 05:14 12.24490 79.31771 25668 ft 386 kts
2026-05-09 05:14 12.27156 79.32052 25203 ft 383 kts
2026-05-09 05:14 12.29796 79.32331 24737 ft 380 kts
2026-05-09 05:14 12.32423 79.32609 24269 ft 377 kts
2026-05-09 05:15 12.34995 79.32881 23800 ft 374 kts
2026-05-09 05:15 12.37583 79.33154 23337 ft 372 kts
2026-05-09 05:15 12.40152 79.33426 22864 ft 369 kts
2026-05-09 05:15 12.42706 79.33696 22385 ft 366 kts
2026-05-09 05:16 12.45242 79.33964 21912 ft 364 kts
2026-05-09 05:16 12.47719 79.34227 21432 ft 361 kts
2026-05-09 05:16 12.50211 79.34491 20970 ft 358 kts
2026-05-09 05:16 12.52685 79.34753 20493 ft 356 kts
2026-05-09 05:17 12.55109 79.35231 20000 ft 354 kts 18°
2026-05-09 05:17 12.57374 79.36196 19533 ft 351 kts 25°
2026-05-09 05:17 12.59564 79.37286 19047 ft 348 kts 26°
2026-05-09 05:17 12.61704 79.38376 18584 ft 346 kts 26°
2026-05-09 05:18 12.63849 79.39468 18109 ft 343 kts 26°
2026-05-09 05:18 12.65994 79.40555 17626 ft 341 kts 26°
2026-05-09 05:18 12.68118 79.41628 17160 ft 338 kts 26°
2026-05-09 05:18 12.70204 79.42680 16684 ft 336 kts 26°
2026-05-09 05:19 12.72303 79.43738 16208 ft 334 kts 26°
2026-05-09 05:19 12.74391 79.44790 15730 ft 331 kts 26°
2026-05-09 05:19 12.76426 79.45815 15268 ft 329 kts 26°
2026-05-09 05:19 12.78475 79.46847 14800 ft 327 kts 26°
2026-05-09 05:20 12.80515 79.47875 14329 ft 324 kts 26°
2026-05-09 05:20 12.82528 79.48892 13860 ft 322 kts 27°
2026-05-09 05:20 12.84372 79.50178 13256 ft 318 kts 45°
2026-05-09 05:20 12.85586 79.52008 12667 ft 312 kts 64°
2026-05-09 05:21 12.86411 79.54048 12070 ft 308 kts 69°
2026-05-09 05:21 12.87152 79.56093 11476 ft 304 kts 70°
2026-05-09 05:21 12.87879 79.58118 10872 ft 300 kts 70°
2026-05-09 05:21 12.88600 79.60111 10273 ft 296 kts 69°
2026-05-09 05:22 12.89323 79.62086 9676 ft 293 kts 69°
2026-05-09 05:22 12.90037 79.64033 9075 ft 290 kts 69°
2026-05-09 05:22 12.90738 79.65936 8481 ft 286 kts 69°
2026-05-09 05:22 12.91439 79.67839 7881 ft 284 kts 69°
2026-05-09 05:23 12.92137 79.69731 7279 ft 281 kts 69°
2026-05-09 05:23 12.92818 79.71575 6687 ft 279 kts 69°
2026-05-09 05:23 12.93503 79.73429 6084 ft 276 kts 69°
2026-05-09 05:23 12.94181 79.75266 5488 ft 274 kts 69°
2026-05-09 05:24 12.94852 79.77087 4882 ft 272 kts 69°
2026-05-09 05:24 12.95518 79.78891 4346 ft 267 kts 69°
2026-05-09 05:24 12.96157 79.80626 4144 ft 251 kts 69°
2026-05-09 05:24 12.96748 79.82232 4143 ft 230 kts 69°
2026-05-09 05:25 12.97292 79.83707 4112 ft 211 kts 69°
2026-05-09 05:25 12.97788 79.85052 4046 ft 197 kts 69°
2026-05-09 05:25 12.98659 79.87666 3508 ft 193 kts 81°
2026-05-09 05:26 12.98609 79.89034 3187 ft 192 kts 105°
2026-05-09 05:26 12.98009 79.90201 2873 ft 191 kts 130°
2026-05-09 05:26 12.97081 79.91173 2608 ft 188 kts 137°
2026-05-09 05:26 12.96137 79.92044 2496 ft 178 kts 139°
2026-05-09 05:27 12.95241 79.92861 2427 ft 166 kts 139°
2026-05-09 05:27 12.94409 79.93624 2325 ft 155 kts 139°
2026-05-09 05:27 12.93640 79.94335 2160 ft 147 kts 138°
2026-05-09 05:27 12.92891 79.95034 2124 ft 145 kts 137°
2026-05-09 05:28 12.92231 79.95825 2123 ft 147 kts 121°
2026-05-09 05:28 12.91900 79.96801 2105 ft 146 kts 94°
2026-05-09 05:28 12.91986 79.97839 2110 ft 146 kts 77°
2026-05-09 05:28 12.92287 79.98838 2115 ft 147 kts 69°
2026-05-09 05:29 12.92646 79.99803 2117 ft 147 kts 69°
2026-05-09 05:29 12.93013 80.00779 2105 ft 147 kts 69°
2026-05-09 05:29 12.93380 80.01761 2121 ft 147 kts 69°
2026-05-09 05:29 12.93736 80.02715 2132 ft 137 kts 69°
2026-05-09 05:30 12.94066 80.03599 2121 ft 130 kts 69°
2026-05-09 05:30 12.94390 80.04469 2116 ft 131 kts 69°
2026-05-09 05:30 12.94712 80.05337 2095 ft 132 kts 69°
2026-05-09 05:30 12.95040 80.06218 1933 ft 132 kts 69°
2026-05-09 05:31 12.95369 80.07100 1745 ft 132 kts 69°
2026-05-09 05:31 12.95696 80.07978 1576 ft 131 kts 69°
2026-05-09 05:31 12.96021 80.08847 1398 ft 130 kts 69°
2026-05-09 05:31 12.96346 80.09718 1210 ft 130 kts 69°
2026-05-09 05:32 12.96669 80.10587 1046 ft 130 kts 69°
2026-05-09 05:32 12.96992 80.11453 872 ft 130 kts 69°
2026-05-09 05:32 12.97310 80.12307 695 ft 129 kts 69°
2026-05-09 05:32 12.97632 80.13168 528 ft 129 kts 69°
2026-05-09 05:33 12.97951 80.14026 356 ft 128 kts 69°
2026-05-09 05:33 12.98264 80.14882 154 ft 128 kts 69°
2026-05-09 05:33 12.98568 80.15726 53 ft 124 kts 69°
2026-05-09 05:33 12.98749 80.16222 54 ft 95 kts 68°
2026-05-09 05:34 12.98956 80.16751 54 ft 26 kts 67°
2026-05-09 05:34 12.99006 80.16871 57 ft 22 kts 68°
2026-05-09 05:34 12.99075 80.17051 55 ft 26 kts 68°
2026-05-09 05:34 12.99113 80.17163 53 ft 22 kts 90°
2026-05-09 05:35 12.98968 80.17235 53 ft 17 kts 190°
2026-05-09 05:35 12.98909 80.17144 57 ft 16 kts 250°
2026-05-09 05:35 12.98883 80.17069 55 ft 17 kts 250°
2026-05-09 05:35 12.98839 80.16952 55 ft 18 kts 249°
2026-05-09 05:36 12.98792 80.16831 56 ft 17 kts 248°
2026-05-09 05:36 12.98726 80.16737 56 ft 17 kts 189°
2026-05-09 05:36 12.98613 80.16764 56 ft 17 kts 190°
2026-05-09 05:36 12.98556 80.16671 52 ft 15 kts 249°
2026-05-09 05:37 12.98508 80.16587 56 ft 12 kts 194°
2026-05-09 05:37 12.98462 80.16600 55 ft 0 kts 159°